Wind_Speed
9 11 10 10 11 11 11 11 11 11 11 11 11 11 11 11 10 10 9 9 8 7 7 6 6 5 5 5 6 6 6 6 7 7 7 7 7 7 8 8 8 8 9
10 12 11 11 12 12 12 12 13 13 12 12 12 12 12 11 11 10 10 9 8 7 7 6 6 6 5 5 6 6 7 7 7 8 8 8 8 8 8 8 8 8 9
12 13 13 12 12 13 13 14 14 13 13 13 13 13 12 12 11 10 10 9 8 7 7 7 6 6 5 6 6 7 7 8 8 8 8 8 8 8 8 8 8 8 8
12 13 13 13 13 13 14 14 15 14 14 14 13 13 12 12 11 10 9 8 8 7 7 6 6 6 5 6 7 7 8 8 8 8 8 9 9 9 9 9 9 9 9
13 13 14 13 14 14 14 15 15 15 14 14 13 13 12 12 11 10 9 8 8 7 7 6 5 5 6 6 7 7 8 8 8 8 8 9 9 10 10 10 9 9 9
13 13 14 14 14 15 15 15 15 15 14 14 13 12 12 11 10 9 9 8 8 7 6 6 6 6 6 6 7 8 8 8 9 8 8 9 10 10 10 10 10 10 10
12 13 13 14 14 15 15 15 15 14 14 13 12 12 11 11 10 9 9 8 8 7 7 6 6 6 6 6 7 8 8 8 9 9 9 9 10 10 10 10 10 10 10
11 12 12 13 14 14 14 14 14 13 13 12 12 11 11 10 10 9 9 8 8 7 7 7 7 6 6 7 7 8 8 9 9 9 9 10 11 11 11 11 11 11 11
11 12 12 13 13 13 13 13 13 12 12 12 12 11 11 11 10 9 9 8 8 8 8 8 7 7 7 8 8 9 9 10 10 10 10 11 11 12 12 12 12 12 12
11 11 11 12 12 12 13 13 13 12 12 12 12 12 11 10 10 9 9 9 9 9 9 8 8 8 8 9 9 10 11 11 11 10 10 11 12 13 13 13 13 13 13
11 11 11 12 12 12 12 13 13 13 13 13 12 12 11 10 10 9 9 10 9 9 10 10 10 10 10 10 11 11 12 13 12 11 12 13 13 14 15 14 14 14 14
13 12 11 12 12 11 12 13 13 13 13 13 13 12 11 10 10 10 10 10 10 11 11 11 11 11 12 12 13 13 14 14 14 13 12 14 15 15 15 16 15 15 16
14 13 12 12 13 12 12 13 13 13 13 13 13 12 11 11 11 11 11 12 12 12 12 13 13 14 14 14 15 16 16 16 16 15 14 15 17 17 17 17 16 17 17
16 15 13 12 13 12 12 12 12 13 13 13 13 12 12 12 12 12 12 13 14 14 15 15 16 16 17 17 18 18 19 19 19 18 17 18 19 19 19 19 19 19 19
16 15 14 14 13 13 13 13 13 14 14 13 13 13 13 13 13 13 14 15 16 16 17 18 19 20 20 21 21 21 22 22 22 21 20 20 21 21 21 21 21 21 21
16 16 15 15 14 14 14 15 15 14 14 13 14 14 15 14 14 15 16 17 19 19 20 21 22 23 23 24 24 24 25 25 25 25 25 24 24 24 25 25 25 24 24
18 16 16 15 15 16 16 16 16 16 15 15 16 16 16 17 17 18 19 20 21 22 22 23 25 26 26 27 27 27 28 28 28 28 28 27 27 27 27 27 27 28 27
21 18 17 17 17 17 16 16 16 17 16 16 17 18 19 19 20 21 22 23 23 24 25 26 27 28 28 29 30 30 30 30 30 30 30 30 30 29 29 29 29 30 30
23 20 19 19 19 18 17 17 18 18 18 18 19 19 20 21 22 23 24 25 27 27 28 29 30 30 31 31 32 31 31 31 31 32 33 33 33 32 32 32 32 32 32
24 22 22 21 20 19 18 19 19 19 19 20 21 21 22 22 24 25 27 29 30 31 31 32 33 34 34 34 34 33 33 33 33 34 35 35 35 35 34 34 34 34 35
25 24 24 22 21 21 20 20 21 21 22 23 23 24 25 25 27 28 29 31 32 34 34 34 35 34 34 34 35 35 34 34 34 33 34 36 36 35 36 38 37 37 38
25 25 25 25 24 23 22 23 23 24 25 26 26 27 27 28 29 30 30 31 33 34 35 37 36 35 34 34 34 35 35 34 34 34 35 36 37 38 39 40 39 40 41
26 26 27 27 26 25 25 25 25 26 27 28 28 29 30 30 30 31 31 32 33 34 35 36 35 35 33 32 32 31 32 33 34 35 36 36 37 39 41 42 43 44 45
27 27 28 29 29 27 26 27 28 28 29 29 30 31 32 31 32 32 32 32 33 33 33 33 34 34 33 32 32 33 33 35 36 38 38 38 39 40 42 44 45 47 48
28 29 29 29 30 28 28 28 29 30 30 30 31 32 33 34 34 34 33 33 33 33 32 33 33 33 33 33 33 33 35 37 38 40 41 42 43 43 43 45 47 49 51
30 32 31 31 31 32 31 31 31 32 32 32 33 33 34 34 34 34 34 35 35 34 34 35 35 35 34 34 35 35 36 38 39 41 43 45 45 46 48 49 51 53 55
Wind_Direction
251 247 242 238 235 232 229 229 231 233 235 238 240 242 243 242 242 245 246 247 249 250 250 252 254 258 264 271 275 279 282 283 283 284 286 287 290 291 292 295 297 298 298
259 255 249 247 242 236 232 231 233 236 239 242 244 247 248 247 246 248 248 249 251 252 253 256 260 265 272 278 280 281 282 283 284 285 285 285 287 290 292 295 297 301 301
266 260 254 251 247 241 236 233 234 236 240 244 247 249 250 250 250 250 251 253 254 254 256 260 265 270 275 280 283 284 284 285 286 288 288 288 288 288 291 293 295 298 298
270 261 255 252 249 244 239 235 235 236 240 244 247 249 250 250 251 251 252 253 253 255 259 264 268 274 279 283 286 287 288 289 290 291 290 289 289 290 290 290 293 294 293
270 264 257 254 249 246 241 238 236 236 239 242 246 249 249 249 249 250 250 250 254 258 262 267 274 281 286 290 292 293 294 297 296 295 292 289 290 291 292 291 293 293 290
267 265 259 255 249 245 242 240 237 237 239 241 244 245 246 247 248 247 246 249 254 260 265 271 279 286 293 296 297 298 298 300 300 298 295 291 292 293 293 293 292 292 290
268 264 258 253 248 245 243 240 240 239 239 241 241 242 243 243 243 244 246 252 257 261 267 273 281 286 293 300 303 304 305 306 306 304 301 295 296 294 293 292 291 291 292
270 264 256 254 248 244 242 240 240 239 238 238 238 239 240 240 241 244 249 255 260 266 271 276 282 286 293 299 304 308 309 310 310 308 303 296 299 297 295 291 290 289 289
270 263 256 255 250 245 242 239 238 238 237 237 238 239 240 242 243 246 252 258 262 267 272 276 281 287 293 298 303 308 310 309 311 312 309 301 302 300 297 293 289 288 287
270 268 261 255 250 247 243 238 236 236 236 236 237 240 242 244 246 248 254 260 264 268 272 278 284 289 295 299 302 306 308 307 309 311 311 300 297 298 296 292 289 287 285
268 268 264 256 249 246 243 240 237 236 236 236 238 240 243 246 248 252 257 261 264 268 274 280 286 290 294 298 301 304 305 306 307 308 308 300 297 297 294 290 289 287 285
267 266 262 257 251 247 246 243 240 239 238 238 240 242 245 247 250 254 258 261 266 271 275 281 288 289 292 296 299 301 302 306 308 308 304 297 298 295 292 288 287 286 284
262 263 263 260 254 249 247 245 243 242 241 242 244 246 247 250 253 256 260 264 269 274 278 282 286 287 290 292 296 298 299 302 304 305 302 294 295 294 291 288 285 283 284
257 262 263 260 257 253 250 248 245 243 243 244 247 250 251 254 258 262 266 269 272 275 278 280 282 285 288 290 292 294 295 296 299 300 300 296 294 294 293 290 285 282 282
247 254 260 262 263 258 254 251 249 248 248 250 253 255 257 261 265 270 273 276 277 278 279 281 282 284 286 288 290 292 294 294 296 298 297 295 293 292 291 290 286 283 282
241 250 257 261 264 262 259 259 258 256 255 255 255 258 262 267 272 275 277 279 281 281 282 283 284 284 286 287 288 289 291 291 292 293 293 291 288 288 288 287 285 282 281
239 249 253 259 263 264 263 263 262 256 257 259 261 264 268 273 275 276 279 280 282 283 284 284 285 285 283 283 284 285 288 288 288 290 290 288 286 286 286 285 284 282 281
240 244 254 258 260 265 265 266 265 263 262 264 266 268 273 276 278 279 281 280 281 282 283 282 283 285 284 283 283 283 284 285 286 287 287 286 285 285 285 283 282 282 280
244 244 252 256 259 264 266 268 268 266 266 268 270 274 278 280 279 281 283 284 284 283 283 282 283 285 284 283 282 283 284 284 285 285 285 285 286 286 285 281 282 282 280
246 246 249 255 258 262 267 269 266 266 269 273 274 277 278 279 281 285 286 285 286 285 285 285 285 286 286 285 283 284 286 284 285 285 284 282 284 284 284 280 281 281 280
242 245 249 255 257 260 263 265 265 267 270 274 275 276 276 281 283 285 286 286 287 286 286 288 289 289 287 287 284 282 285 286 286 286 284 283 280 281 280 278 280 279 277
240 244 249 253 254 256 259 263 264 266 269 273 277 278 280 285 287 290 293 294 294 291 289 287 290 290 288 288 285 283 283 284 284 284 283 283 281 280 279 278 279 278 278
245 244 249 252 255 256 258 261 265 268 271 273 278 281 284 285 289 292 294 299 298 295 293 290 288 290 289 288 286 285 286 285 284 283 284 285 284 282 281 279 279 279 279
251 253 254 255 258 259 260 261 265 269 272 275 279 282 287 289 293 297 295 298 299 297 296 294 290 289 289 289 287 287 287 286 285 284 284 284 285 284 283 282 280 279 279
255 257 258 259 262 263 263 265 265 268 272 277 281 284 286 289 292 295 295 297 299 297 294 294 294 292 292 291 290 288 287 286 286 285 285 285 285 284 284 282 281 279 280
256 257 259 261 263 267 268 269 270 272 275 280 283 287 289 292 294 296 296 297 298 296 294 293 292 292 292 291 291 290 289 287 285 286 286 285 284 284 283 281 280 281 281
Height
5896 5896 5897 5897 5897 5898 5898 5899 5899 5900 5901 5901 5902 5902 5902 5903 5903 5903 5903 5903 5903 5902 5902 5903 5902 5902 5902 5902 5902 5902 5902 5902 5902 5902 5902 5902 5902 5902 5902 5902 5902 5902 5902
5895 5894 5895 5896 5896 5896 5897 5897 5898 5899 5899 5900 5901 5901 5902 5902 5902 5902 5902 5902 5902 5902 5902 5902 5902 5902 5902 5901 5901 5901 5901 5901 5901 5901 5901 5901 5901 5901 5901 5901 5901 5901 5901
5893 5893 5894 5894 5894 5895 5895 5896 5896 5897 5898 5899 5899 5900 5900 5901 5901 5901 5901 5901 5901 5901 5901 5901 5901 5901 5901 5901 5901 5900 5900 5900 5900 5900 5900 5900 5900 5900 5900 5900 5900 5900 5900
5891 5892 5892 5892 5893 5893 5893 5894 5895 5896 5896 5897 5898 5898 5899 5900 5900 5900 5900 5901 5901 5901 5901 5901 5901 5901 5901 5900 5900 5900 5900 5900 5900 5899 5899 5899 5899 5899 5899 5899 5899 5899 5899
5890 5890 5890 5890 5891 5891 5892 5892 5893 5894 5895 5896 5896 5897 5898 5898 5899 5899 5899 5900 5900 5900 5900 5900 5900 5900 5900 5900 5899 5899 5899 5899 5899 5899 5899 5898 5898 5898 5898 5898 5898 5897 5897
5889 5888 5888 5888 5889 5889 5890 5891 5891 5892 5893 5894 5895 5896 5897 5897 5898 5898 5898 5899 5898 5899 5899 5899 5899 5899 5899 5899 5898 5898 5898 5898 5898 5898 5898 5897 5897 5897 5897 5896 5896 5896 5896
5887 5886 5886 5887 5887 5888 5888 5889 5890 5890 5891 5893 5893 5894 5895 5896 5897 5897 5897 5897 5897 5897 5898 5898 5898 5898 5898 5898 5897 5897 5897 5897 5896 5897 5896 5895 5895 5895 5895 5894 5894 5894 5894
5885 5885 5885 5885 5885 5886 5886 5887 5888 5889 5890 5891 5892 5893 5894 5895 5896 5896 5896 5896 5896 5896 5896 5896 5896 5897 5897 5897 5896 5896 5895 5895 5895 5895 5894 5893 5894 5893 5893 5893 5893 5893 5892
5883 5883 5883 5883 5883 5884 5885 5885 5887 5888 5889 5890 5891 5892 5893 5894 5894 5895 5895 5895 5895 5895 5895 5895 5895 5895 5895 5895 5895 5895 5894 5893 5893 5893 5893 5891 5891 5891 5891 5891 5890 5890 5890
5881 5881 5881 5881 5882 5882 5883 5884 5885 5886 5887 5888 5889 5891 5892 5893 5893 5893 5893 5894 5894 5894 5894 5894 5894 5894 5894 5894 5894 5893 5892 5891 5891 5891 5891 5890 5888 5889 5889 5888 5888 5888 5888
5879 5879 5879 5880 5880 5881 5882 5883 5884 5885 5886 5887 5888 5889 5890 5891 5892 5892 5892 5892 5892 5892 5892 5892 5893 5893 5893 5892 5892 5891 5890 5890 5889 5889 5889 5887 5886 5887 5886 5886 5885 5885 5885
5876 5877 5877 5878 5878 5879 5880 5881 5882 5883 5884 5885 5886 5887 5888 5889 5890 5890 5891 5891 5891 5891 5891 5891 5891 5891 5891 5890 5890 5889 5888 5888 5887 5887 5887 5885 5885 5884 5884 5883 5883 5882 5882
5873 5873 5875 5876 5876 5877 5879 5879 5881 5882 5883 5884 5885 5886 5887 5888 5888 5889 5889 5889 5889 5889 5889 5889 5889 5889 5889 5888 5888 5887 5886 5885 5884 5884 5884 5883 5882 5882 5881 5880 5879 5879 5879
5869 5870 5872 5873 5874 5875 5877 5878 5879 5880 5881 5882 5883 5884 5885 5886 5886 5887 5887 5887 5887 5887 5887 5887 5886 5886 5886 5886 5885 5885 5883 5882 5881 5881 5881 5880 5879 5878 5877 5877 5876 5875 5875
5864 5867 5869 5871 5872 5873 5875 5876 5877 5878 5879 5881 5882 5882 5883 5884 5884 5885 5885 5885 5885 5885 5885 5884 5884 5883 5883 5882 5881 5881 5880 5879 5878 5876 5876 5876 5875 5874 5873 5873 5872 5871 5871
5861 5865 5867 5869 5870 5871 5872 5873 5874 5876 5877 5879 5878 5879 5881 5881 5882 5882 5882 5882 5882 5882 5881 5881 5880 5880 5879 5878 5877 5877 5876 5875 5874 5872 5872 5871 5869 5869 5868 5868 5867 5866 5866
5858 5860 5863 5865 5867 5868 5869 5870 5872 5874 5875 5876 5877 5877 5878 5879 5879 5879 5879 5879 5878 5878 5877 5877 5876 5875 5875 5874 5873 5872 5871 5871 5870 5868 5867 5866 5864 5863 5863 5862 5861 5860 5860
5855 5858 5860 5862 5864 5865 5866 5867 5869 5870 5872 5873 5874 5875 5875 5875 5875 5875 5875 5874 5874 5873 5873 5872 5871 5869 5869 5868 5867 5866 5865 5865 5864 5863 5861 5860 5859 5857 5856 5856 5855 5854 5853
5852 5855 5857 5859 5860 5861 5863 5864 5866 5867 5868 5869 5870 5871 5871 5871 5871 5871 5871 5870 5870 5869 5868 5866 5865 5864 5863 5861 5860 5859 5859 5858 5858 5857 5855 5853 5852 5850 5850 5849 5848 5847 5846
5848 5851 5853 5854 5856 5858 5859 5861 5862 5863 5864 5865 5866 5867 5867 5867 5866 5866 5866 5865 5864 5863 5862 5861 5859 5857 5856 5854 5853 5852 5852 5851 5850 5849 5848 5846 5845 5843 5842 5841 5840 5839 5838
5843 5846 5848 5850 5851 5853 5855 5857 5858 5859 5860 5861 5861 5862 5862 5862 5861 5860 5860 5859 5858 5857 5855 5853 5851 5850 5849 5847 5845 5845 5844 5843 5842 5841 5840 5838 5837 5835 5834 5833 5832 5830 5829
5837 5841 5843 5845 5847 5848 5850 5852 5853 5855 5855 5856 5856 5856 5856 5856 5855 5855 5854 5853 5851 5850 5848 5846 5844 5842 5841 5840 5838 5837 5836 5836 5835 5834 5832 5831 5829 5827 5825 5824 5822 5821 5819
5832 5835 5838 5840 5841 5843 5845 5846 5848 5849 5849 5850 5851 5851 5850 5850 5849 5848 5847 5845 5844 5843 5841 5839 5837 5835 5834 5832 5831 5830 5828 5828 5826 5825 5824 5822 5820 5818 5816 5814 5813 5811 5809
5829 5831 5833 5835 5836 5838 5839 5840 5841 5842 5843 5844 5844 5844 5844 5843 5842 5841 5840 5839 5837 5835 5833 5831 5830 5828 5827 5825 5823 5822 5821 5819 5817 5816 5815 5813 5811 5809 5806 5804 5802 5799 5797
5825 5826 5829 5830 5831 5832 5833 5834 5835 5836 5837 5837 5837 5837 5837 5837 5836 5835 5833 5832 5830 5828 5826 5824 5822 5821 5819 5818 5816 5814 5813 5811 5808 5806 5805 5803 5801 5798 5795 5792 5790 5787 5784
5820 5822 5823 5824 5825 5826 5827 5828 5828 5829 5830 5830 5830 5830 5830 5830 5829 5828 5827 5825 5823 5821 5819 5817 5815 5813 5812 5810 5808 5806 5804 5801 5799 5796 5794 5792 5789 5786 5782 5779 5777 5774 5770